Regional Weather Roundup
Issued by NWS

Home | Current Version | Previous Version | Graphics & Text | Print | Product List | Glossary On
Versions: 1 2 3 4 5 6 7 8 9 10 11 12 13 14 15 16 17 18 19 20 21 22 23 24 25 26 27
000
ASUS45 KBOU 281307
RWRCO

WEATHER ROUNDUP FOR COLORADO
NATIONAL WEATHER SERVICE DENVER/BOULDER CO
700 AM MDT THU APR 28 2016

NOTE: "FAIR" INDICATES FEW OR NO CLOUDS BELOW 12000 FEET WITH NO
SIGNIFICANT WEATHER AND/OR OBSTRUCTIONS TO VISIBILITY.

COZ001>005-013-030-031-281400-
...NORTHWEST COLORADO...

CITY           SKY/WX    TMP DP  RH WIND       PRES   REMARKS
CRAIG          CLOUDY    33  30  88 CALM      29.76F
HAYDEN         CLOUDY    36  27  69 E15       29.75F
MEEKER         CLOUDY    39  33  79 VRB5      29.73S
MOUNT WERNER   NOT AVBL
STEAMBOAT SPGS FAIR      31  27  84 CALM      29.78S
WALDEN         FAIR      25  21  86 N6        29.86R WCI  18
$$

COZ006>008-011-281400-
...WEST CENTRAL VALLEYS...

CITY           SKY/WX    TMP DP  RH WIND       PRES   REMARKS
GRAND JUNCTION RAIN      42  42 100 W12       29.73R FOG
MONTROSE       LGT RAIN  43  39  86 CALM      29.76R
EAGLE          CLOUDY    34  30  86 E3        29.81S
RIFLE          CLOUDY    42  37  82 W7        29.73R
DELTA          NOT AVBL
NUCLA          NOT AVBL
$$

COZ017>023-064>068-281400-
...SOUTHWEST COLORADO...

CITY           SKY/WX    TMP DP  RH WIND       PRES   REMARKS
DURANGO        CLOUDY    42  29  59 E6        29.80R
CORTEZ         FAIR      38  35  89 CALM      29.75R
PAGOSA SPRINGS CLOUDY    41  29  60 S13       29.88R
TELLURIDE      LGT SNOW  34  33  94 SW6       29.83R WCI  29
WOLF CREEK PAS NOT AVBL
$$

COZ009-010-012-014-032>034-037-058>063-281400-
...CENTRAL COLORADO...

CITY           SKY/WX    TMP DP  RH WIND       PRES   REMARKS
ASPEN          MOCLDY    32  28  85 CALM      29.75F
BUENA VISTA    LGT SNOW  32  31  96 NE8       29.88R VSB 3/4 WCI  25
COPPER MTN     NOT AVBL
BERTHOUD PASS  CLOUDY    18   9  68 SE18      29.90R WCI   2
COTTONWOOD PAS SNOW      32  30  93 SE17      29.87S VSB 1/2 WCI  21
GUNNISON       CLOUDY    36  30  80 N9        29.80S
KREMMLING      FAIR      28  27  93 CALM      29.85R
LEADVILLE      LGT SNOW  27  27 100 S10       29.84S FOG     WCI  17
MONARCH PASS   FOG       23  21  93 E8        30.01R VSB<1/4 WCI  14
SALIDA         CLOUDY    34  32  92 SE16G25   29.94R WCI  24
SUNLIGHT       CLOUDY    28  28 100 E5        29.85R WCI  23
WILKERSON PASS SNOW     N/A N/A N/A S12G17    29.94R VSB<1/4
$$

COZ069>075-281400-
...SAN LUIS VALLEY/SANGRE DE CRISTO MOUNTAINS...

CITY           SKY/WX    TMP DP  RH WIND       PRES   REMARKS
ALAMOSA        LGT RAIN  39  37  92 SE12      29.86R
LA VETA PASS   SNOW      27  23  86 MISG      29.94S VSB 1/2
SAGUACHE       NOT AVBL
$$

COZ035-036-038>040-281400-
...NORTHERN COLORADO FRONT RANGE...

CITY           SKY/WX    TMP DP  RH WIND       PRES   REMARKS
DENVER INTL AP MOCLDY    35  24  64 E13       29.95R WCI  26
DMNS CITY PARK   N/A     37  28  71 E15       29.96R
AURORA         CLOUDY    34  28  78 E8        29.96R WCI  28
FRONT RANGE AP NOT AVBL
ERIE MUNI ARPT CLOUDY    37  30  75 SE9       29.96R
BOULDER MUN AP CLOUDY    36  30  80 NE5       29.95R
CENTENNIAL     MOCLDY    35  27  72 E10       29.94R WCI  27
BROOMFIELD     CLOUDY    36  28  75 E12       29.95R
FORT COLLINS   CLOUDY    36  28  75 SE7       29.96R
LONGMONT       CLOUDY    39  30  71 SE3       29.98R
$$

COZ041-046-047-076>085-087-088-281400-
...PIKES PEAK/PALMER DIVIDE AND SOUTHERN FOOTHILLS...

CITY           SKY/WX    TMP DP  RH WIND       PRES   REMARKS
COLO. SPRINGS  CLOUDY    35  27  72 S12       29.95R WCI  27
A. F. ACADEMY  CLOUDY    36  28  75 SE12      29.92R
SCHRIEVER AFB  NOT AVBL
ELLICOTT       NOT AVBL
FALCON         CLOUDY    32  27  80 E5        29.95R WCI  28
FORT CARSON    FLURRIES  36  29  77 S12       29.95R
LIMON          CLOUDY    34  26  72 N6        29.96R WCI  29
MONUMENT HILL  CLOUDY    30  28  93 E8        29.94R WCI  23
TRINIDAD       CLOUDY    39  30  70 NE8       29.93R
$$

COZ042>045-048>051-090-091-281400-
...NORTHEAST COLORADO...

CITY           SKY/WX    TMP DP  RH WIND       PRES   REMARKS
GREELEY ARPT   CLOUDY    37  30  75 SE6       29.97R
AKRON          CLOUDY    32  29  88 N6        29.96R WCI  26
BURLINGTON     PTSUNNY   37  30  75 N10       29.97R
WRAY           NOT AVBL
STERLING       PTSUNNY   32  32 100 CALM      29.97R
HOLYOKE        NOT AVBL
FORT MORGAN    CLOUDY    34  30  83 CALM      29.98R
$$

COZ086-089-092>099-281400-
...SOUTHEAST COLORADO...

CITY           SKY/WX    TMP DP  RH WIND       PRES   REMARKS
PUEBLO         CLOUDY    43  26  51 E13       29.96R
LA JUNTA       CLOUDY    42  29  59 E10       29.96R
LAMAR          CLOUDY    40  33  76 NE5       29.96R
SPRINGFIELD      N/A     38  30  73 NE14      29.96R
$$




USA.gov is the U.S. government's official web portal to all federal, state and local government web resources and services.